Location: Seattle
(47.6064°N, 122.3308°W)
Time: 00:40:10
(UTC-08:00)

Tiros 1 - Pass Details

Date: 05 December 2020
Orbit: 630 x 663 km, 48.4° (Epoch: 28 January)

Event Time Altitude Azimuth Distance (km) Brightness Sun altitude
Rises 16:10:38 0° 276° (W) 2,996 11.4 0.2°
Reaches altitude 10° 16:12:59 10° 278° (W) 2,083 10.6 -0.1°
Maximum altitude 16:17:49 83° 6° (N) 670 7.3 -0.8°
Drops below altitude 10° 16:22:37 10° 95° (E) 2,070 9.3 -1.4°
Sets 16:24:57 0° 96° (E) 2,977 10.1 -1.8°
